Location: Kielce
(50.8833°N, 20.6167°E)
Time: 00:34:50
(UTC+02:00)

SR - Pass Details

Date: 24 April 2021
Orbit: 573 x 882 km, 66.7° (Epoch: 16 May)

Event Time Altitude Azimuth Distance (km) Brightness Sun altitude
Rises 10:24:17 0° 282° (WNW) 3,450 ? 43.7°
Reaches altitude 10° 10:27:31 10° 300° (WNW) 2,536 ? 44.1°
Maximum altitude 10:31:42 19° 345° (NNW) 1,959 ? 44.5°
Drops below altitude 10° 10:35:54 10° 30° (NNE) 2,540 ? 45.0°
Sets 10:39:08 0° 48° (NE) 3,458 ? 45.3°
